| time (UTC) | temp F | wind direction | speed MPH | gust MPH | rain 1hr in | rain 24hr in | rain mn in | humidity % | barometer mb |
| 20260906211545 | 71 | 0 | 0.0 | 2.0 | 0.00 | 0.04 | 0.04 | 70 | 1014.2 |
| 20260906211024 | 70 | 233 | 0.0 | 2.0 | 0.00 | 0.04 | 0.04 | 70 | 1014.2 |
| 20260906210524 | 70 | 0 | 0.0 | 0.0 | 0.00 | 0.04 | 0.04 | 71 | 1014.1 |
| 20260906210042 | 70 | 0 | 0.0 | 5.0 | 0.00 | 0.04 | 0.04 | 69 | 1014.0 |
| 20260906205524 | 70 | 0 | 0.0 | 5.0 | 0.00 | 0.04 | 0.04 | 69 | 1014.1 |
| 20260906205021 | 71 | 167 | 0.0 | 2.0 | 0.00 | 0.04 | 0.04 | 68 | 1014.1 |
| 20260906204545 | 70 | 0 | 0.0 | 2.0 | 0.00 | 0.04 | 0.04 | 68 | 1014.0 |
| 20260906204023 | 69 | 224 | 0.0 | 2.0 | 0.00 | 0.04 | 0.04 | 70 | 1014.1 |
| 20260906203525 | 69 | 0 | 0.0 | 1.0 | 0.00 | 0.04 | 0.04 | 69 | 1014.0 |
| 20260906203044 | 69 | 0 | 0.0 | 4.0 | 0.00 | 0.04 | 0.04 | 69 | 1014.0 |
| 20260906202523 | 69 | 0 | 1.0 | 4.0 | 0.00 | 0.04 | 0.04 | 70 | 1014.1 |
| 20260906202024 | 69 | 34 | 0.0 | 4.0 | 0.00 | 0.04 | 0.04 | 68 | 1014.0 |
| 20260906201544 | 70 | 0 | 0.0 | 4.0 | 0.00 | 0.04 | 0.04 | 69 | 1014.1 |
| 20260906201023 | 70 | 340 | 0.0 | 1.0 | 0.00 | 0.04 | 0.04 | 69 | 1014.1 |
| 20260906200524 | 69 | 0 | 0.0 | 1.0 | 0.00 | 0.04 | 0.04 | 69 | 1014.2 |
| 20260906200043 | 68 | 0 | 0.0 | 2.0 | 0.00 | 0.04 | 0.04 | 71 | 1014.3 |
| 20260906195522 | 68 | 0 | 0.0 | 2.0 | 0.00 | 0.04 | 0.04 | 70 | 1014.2 |
| 20260906195020 | 68 | 0 | 0.0 | 2.0 | 0.00 | 0.04 | 0.04 | 73 | 1014.3 |
| 20260906194542 | 67 | 0 | 0.0 | 2.0 | 0.00 | 0.04 | 0.04 | 71 | 1014.2 |
| 20260906194023 | 67 | 330 | 0.0 | 2.0 | 0.00 | 0.04 | 0.04 | 72 | 1014.2 |
| 20260906193524 | 67 | 0 | 0.0 | 5.0 | 0.00 | 0.04 | 0.04 | 72 | 1014.3 |
| 20260906193046 | 66 | 0 | 1.0 | 5.0 | 0.00 | 0.04 | 0.04 | 72 | 1014.2 |
| 20260906192523 | 66 | 0 | 0.0 | 3.0 | 0.00 | 0.04 | 0.04 | 73 | 1014.3 |
| 20260906192025 | 66 | 0 | 0.0 | 4.0 | 0.00 | 0.04 | 0.04 | 72 | 1014.3 |
| 20260906191543 | 66 | 20 | 1.0 | 4.0 | 0.00 | 0.04 | 0.04 | 73 | 1014.3 |
| 20260906191025 | 66 | 300 | 0.0 | 4.0 | 0.00 | 0.04 | 0.04 | 75 | 1014.2 |
| 20260906190523 | 65 | 35 | 1.0 | 4.0 | 0.00 | 0.04 | 0.04 | 73 | 1014.2 |
| 20260906190059 | 65 | 292 | 0.0 | 1.0 | 0.00 | 0.04 | 0.04 | 74 | 1014.3 |
| 20260906185525 | 65 | 0 | 0.0 | 2.0 | 0.00 | 0.04 | 0.04 | 75 | 1014.4 |
| 20260906185025 | 65 | 0 | 0.0 | 2.0 | 0.00 | 0.04 | 0.04 | 73 | 1014.5 |
| 20260906184546 | 65 | 34 | 0.0 | 2.0 | 0.00 | 0.04 | 0.04 | 72 | 1014.5 |
| 20260906184024 | 65 | 0 | 0.0 | 0.0 | 0.00 | 0.04 | 0.04 | 72 | 1014.7 |
| 20260906183525 | 65 | 0 | 0.0 | 1.0 | 0.00 | 0.04 | 0.04 | 73 | 1014.6 |
| 20260906183100 | 65 | 0 | 0.0 | 1.0 | 0.00 | 0.04 | 0.04 | 73 | 1014.6 |
| 20260906182523 | 65 | 0 | 0.0 | 5.0 | 0.00 | 0.04 | 0.04 | 74 | 1014.5 |
| 20260906182024 | 65 | 0 | 1.0 | 5.0 | 0.00 | 0.04 | 0.04 | 72 | 1014.6 |
| 20260906181544 | 65 | 32 | 2.0 | 7.0 | 0.00 | 0.04 | 0.04 | 74 | 1014.5 |
| 20260906181022 | 65 | 0 | 0.0 | 7.0 | 0.00 | 0.04 | 0.04 | 73 | 1014.6 |
| 20260906180524 | 65 | 354 | 3.0 | 6.0 | 0.00 | 0.04 | 0.04 | 73 | 1014.5 |
| 20260906180108 | 65 | 28 | 1.0 | 4.0 | 0.00 | 0.04 | 0.04 | 73 | 1014.5 |
| 20260906175525 | 65 | 23 | 1.0 | 3.0 | 0.00 | 0.04 | 0.04 | 73 | 1014.6 |
| 20260906175028 | 66 | 0 | 0.0 | 6.0 | 0.00 | 0.04 | 0.04 | 73 | 1014.6 |
| 20260906174544 | 66 | 22 | 4.0 | 6.0 | 0.00 | 0.04 | 0.04 | 71 | 1014.6 |
| 20260906174023 | 66 | 12 | 3.0 | 4.0 | 0.00 | 0.04 | 0.04 | 71 | 1014.7 |
| 20260906173524 | 67 | 25 | 0.0 | 2.0 | 0.00 | 0.04 | 0.04 | 72 | 1014.6 |
| 20260906173044 | 67 | 0 | 0.0 | 4.0 | 0.00 | 0.04 | 0.04 | 73 | 1014.7 |
| 20260906172518 | 67 | 27 | 2.0 | 4.0 | 0.00 | 0.04 | 0.04 | 70 | 1014.5 |
| 20260906172018 | 67 | 0 | 0.0 | 4.0 | 0.00 | 0.04 | 0.04 | 71 | 1014.6 |
| 20260906171542 | 67 | 32 | 1.0 | 4.0 | 0.00 | 0.04 | 0.04 | 70 | 1014.5 |
| 20260906171024 | 67 | 1 | 2.0 | 4.0 | 0.00 | 0.04 | 0.04 | 69 | 1014.6 |
| 20260906170524 | 68 | 0 | 0.0 | 6.0 | 0.00 | 0.04 | 0.04 | 71 | 1014.5 |
| 20260906170110 | 67 | 28 | 3.0 | 6.0 | 0.00 | 0.04 | 0.04 | 71 | 1014.5 |
| 20260906165524 | 67 | 1 | 2.0 | 7.0 | 0.00 | 0.04 | 0.04 | 71 | 1014.5 |
| 20260906165024 | 67 | 13 | 3.0 | 7.0 | 0.00 | 0.04 | 0.04 | 71 | 1014.6 |
| 20260906164545 | 67 | 282 | 0.0 | 5.0 | 0.00 | 0.04 | 0.04 | 75 | 1014.6 |
| 20260906164024 | 66 | 351 | 1.0 | 8.0 | 0.00 | 0.04 | 0.04 | 75 | 1014.6 |
| 20260906163524 | 65 | 25 | 3.0 | 8.0 | 0.00 | 0.04 | 0.04 | 74 | 1014.7 |
| 20260906163047 | 65 | 37 | 3.0 | 7.0 | 0.00 | 0.04 | 0.04 | 74 | 1014.8 |
| 20260906162527 | 65 | 25 | 2.0 | 5.0 | 0.00 | 0.04 | 0.04 | 76 | 1014.9 |
| 20260906162022 | 64 | 26 | 2.0 | 5.0 | 0.00 | 0.04 | 0.04 | 76 | 1014.9 |
| 20260906161547 | 64 | 38 | 2.0 | 5.0 | 0.00 | 0.04 | 0.04 | 76 | 1014.9 |
| 20260906161022 | 64 | 22 | 0.0 | 4.0 | 0.00 | 0.04 | 0.04 | 77 | 1015.0 |
| 20260906160525 | 64 | 33 | 1.0 | 4.0 | 0.00 | 0.04 | 0.04 | 76 | 1015.0 |
| 20260906160048 | 64 | 27 | 0.0 | 6.0 | 0.00 | 0.04 | 0.04 | 77 | 1015.1 |
| 20260906155530 | 63 | 29 | 2.0 | 6.0 | 0.00 | 0.04 | 0.04 | 77 | 1015.3 |
| 20260906155025 | 64 | 32 | 2.0 | 6.0 | 0.00 | 0.04 | 0.04 | 76 | 1015.2 |
| 20260906154545 | 64 | 10 | 2.0 | 6.0 | 0.00 | 0.04 | 0.04 | 77 | 1015.2 |
| 20260906154025 | 64 | 24 | 1.0 | 5.0 | 0.00 | 0.04 | 0.04 | 79 | 1015.3 |
| 20260906153524 | 64 | 37 | 1.0 | 5.0 | 0.00 | 0.04 | 0.04 | 78 | 1015.4 |
| 20260906153042 | 64 | 35 | 3.0 | 5.0 | 0.00 | 0.04 | 0.04 | 77 | 1015.5 |
| 20260906152523 | 64 | 39 | 1.0 | 6.0 | 0.00 | 0.04 | 0.04 | 76 | 1015.3 |
| 20260906152024 | 64 | 21 | 2.0 | 7.0 | 0.00 | 0.04 | 0.04 | 75 | 1015.3 |
| 20260906151542 | 64 | 37 | 3.0 | 7.0 | 0.00 | 0.04 | 0.04 | 75 | 1015.2 |
| 20260906151026 | 64 | 8 | 1.0 | 9.0 | 0.00 | 0.04 | 0.04 | 76 | 1015.2 |
| 20260906150524 | 64 | 21 | 4.0 | 9.0 | 0.00 | 0.04 | 0.04 | 76 | 1015.2 |
| 20260906150045 | 64 | 32 | 3.0 | 7.0 | 0.00 | 0.04 | 0.04 | 78 | 1015.2 |
| 20260906145523 | 64 | 20 | 4.0 | 8.0 | 0.00 | 0.04 | 0.04 | 77 | 1015.3 |
| 20260906145019 | 64 | 14 | 4.0 | 8.0 | 0.00 | 0.04 | 0.04 | 76 | 1015.2 |
| 20260906144544 | 65 | 23 | 3.0 | 9.0 | 0.00 | 0.04 | 0.04 | 77 | 1015.3 |
| 20260906144021 | 65 | 27 | 4.0 | 9.0 | 0.00 | 0.04 | 0.04 | 77 | 1015.2 |
| 20260906143523 | 65 | 42 | 3.0 | 8.0 | 0.00 | 0.04 | 0.04 | 78 | 1015.2 |
| 20260906143051 | 64 | 19 | 2.0 | 5.0 | 0.00 | 0.04 | 0.04 | 80 | 1015.3 |
| 20260906142524 | 63 | 30 | 2.0 | 7.0 | 0.00 | 0.04 | 0.04 | 79 | 1015.1 |
| 20260906142024 | 63 | 29 | 2.0 | 7.0 | 0.00 | 0.04 | 0.04 | 79 | 1015.2 |
| 20260906141544 | 63 | 8 | 2.0 | 9.0 | 0.00 | 0.04 | 0.04 | 79 | 1015.1 |
| 20260906141028 | 63 | 352 | 3.0 | 9.0 | 0.00 | 0.04 | 0.04 | 80 | 1015.1 |
| 20260906140524 | 63 | 36 | 4.0 | 8.0 | 0.00 | 0.04 | 0.04 | 83 | 1015.1 |
| 20260906140048 | 63 | 16 | 1.0 | 6.0 | 0.00 | 0.04 | 0.04 | 85 | 1015.2 |
| 20260906135519 | 62 | 36 | 1.0 | 5.0 | 0.00 | 0.04 | 0.04 | 88 | 1015.1 |
| 20260906135023 | 62 | 0 | 0.0 | 5.0 | 0.00 | 0.04 | 0.04 | 89 | 1015.1 |
| 20260906134551 | 62 | 37 | 2.0 | 5.0 | 0.01 | 0.04 | 0.04 | 90 | 1015.1 |
| 20260906134019 | 62 | 0 | 0.0 | 3.0 | 0.01 | 0.04 | 0.04 | 90 | 1015.2 |
| 20260906133521 | 62 | 0 | 0.0 | 3.0 | 0.01 | 0.04 | 0.04 | 90 | 1015.3 |
| 20260906133042 | 62 | 0 | 0.0 | 3.0 | 0.01 | 0.04 | 0.04 | 91 | 1015.2 |
| 20260906132524 | 62 | 25 | 0.0 | 3.0 | 0.01 | 0.04 | 0.04 | 92 | 1015.2 |
| 20260906132023 | 62 | 0 | 0.0 | 1.0 | 0.01 | 0.04 | 0.04 | 93 | 1015.3 |
| 20260906131549 | 61 | 0 | 0.0 | 0.0 | 0.01 | 0.04 | 0.04 | 94 | 1015.2 |
| 20260906131024 | 61 | 0 | 0.0 | 0.0 | 0.01 | 0.04 | 0.04 | 94 | 1015.1 |
| 20260906130524 | 61 | 0 | 0.0 | 0.0 | 0.01 | 0.04 | 0.04 | 94 | 1015.3 |
| 20260906130050 | 60 | 0 | 0.0 | 0.0 | 0.01 | 0.04 | 0.04 | 94 | 1015.2 |
| 20260906125521 | 60 | 0 | 0.0 | 0.0 | 0.01 | 0.04 | 0.04 | 94 | 1015.2 |
| 20260906125019 | 60 | 0 | 0.0 | 0.0 | 0.01 | 0.04 | 0.04 | 94 | 1015.2 |
| 20260906124546 | 60 | 0 | 0.0 | 0.0 | 0.00 | 0.03 | 0.03 | 94 | 1015.1 |
| 20260906124021 | 60 | 0 | 0.0 | 0.0 | 0.00 | 0.03 | 0.03 | 94 | 1015.1 |
| 20260906123523 | 60 | 0 | 0.0 | 0.0 | 0.00 | 0.03 | 0.03 | 95 | 1015.2 |
| 20260906123113 | 59 | 0 | 0.0 | 0.0 | 0.00 | 0.03 | 0.03 | 94 | 1015.1 |
| 20260906122524 | 59 | 0 | 0.0 | 0.0 | 0.00 | 0.03 | 0.03 | 94 | 1015.0 |
| 20260906122023 | 59 | 0 | 0.0 | 0.0 | 0.00 | 0.03 | 0.03 | 94 | 1015.0 |
| 20260906121544 | 59 | 0 | 0.0 | 0.0 | 0.00 | 0.03 | 0.03 | 94 | 1014.9 |
| 20260906121023 | 59 | 0 | 0.0 | 0.0 | 0.00 | 0.03 | 0.03 | 95 | 1014.9 |
| 20260906120519 | 59 | 0 | 0.0 | 0.0 | 0.00 | 0.03 | 0.03 | 95 | 1014.9 |
| 20260906120043 | 59 | 0 | 0.0 | 0.0 | 0.00 | 0.03 | 0.03 | 95 | 1014.8 |
| 20260906115524 | 59 | 0 | 0.0 | 0.0 | 0.00 | 0.03 | 0.03 | 95 | 1014.8 |
| 20260906115024 | 59 | 0 | 0.0 | 0.0 | 0.00 | 0.03 | 0.03 | 94 | 1014.9 |
| 20260906114541 | 59 | 0 | 0.0 | 0.0 | 0.00 | 0.03 | 0.03 | 94 | 1014.8 |
| 20260906114023 | 59 | 0 | 0.0 | 0.0 | 0.00 | 0.03 | 0.03 | 94 | 1014.6 |
| 20260906113523 | 58 | 0 | 0.0 | 0.0 | 0.01 | 0.03 | 0.03 | 94 | 1014.7 |
| 20260906113045 | 58 | 0 | 0.0 | 0.0 | 0.01 | 0.03 | 0.03 | 94 | 1014.6 |
| 20260906112524 | 58 | 0 | 0.0 | 0.0 | 0.02 | 0.03 | 0.03 | 94 | 1014.4 |
| 20260906112025 | 58 | 0 | 0.0 | 0.0 | 0.02 | 0.03 | 0.03 | 94 | 1014.3 |
| 20260906111542 | 58 | 0 | 0.0 | 0.0 | 0.03 | 0.03 | 0.03 | 94 | 1014.2 |
| 20260906111022 | 58 | 0 | 0.0 | 0.0 | 0.03 | 0.03 | 0.03 | 93 | 1014.2 |
| 20260906110519 | 58 | 0 | 0.0 | 0.0 | 0.03 | 0.03 | 0.03 | 93 | 1014.1 |
| 20260906110040 | 58 | 0 | 0.0 | 0.0 | 0.03 | 0.03 | 0.03 | 93 | 1014.1 |
| 20260906105523 | 58 | 0 | 0.0 | 0.0 | 0.03 | 0.03 | 0.03 | 93 | 1013.9 |
| 20260906105023 | 58 | 0 | 0.0 | 0.0 | 0.03 | 0.03 | 0.03 | 93 | 1013.8 |
| 20260906104541 | 58 | 0 | 0.0 | 0.0 | 0.03 | 0.03 | 0.03 | 93 | 1013.8 |
| 20260906104024 | 58 | 0 | 0.0 | 0.0 | 0.03 | 0.03 | 0.03 | 92 | 1013.8 |
| 20260906103524 | 58 | 0 | 0.0 | 0.0 | 0.02 | 0.02 | 0.02 | 92 | 1014.0 |
| 20260906103048 | 58 | 0 | 0.0 | 0.0 | 0.02 | 0.02 | 0.02 | 92 | 1014.0 |
| 20260906102524 | 58 | 0 | 0.0 | 0.0 | 0.01 | 0.01 | 0.01 | 91 | 1013.9 |
| 20260906102024 | 59 | 0 | 0.0 | 0.0 | 0.01 | 0.01 | 0.01 | 91 | 1013.9 |
| 20260906101546 | 59 | 0 | 0.0 | 0.0 | 0.00 | 0.00 | 0.00 | 91 | 1013.9 |
| 20260906101023 | 59 | 0 | 0.0 | 0.0 | 0.00 | 0.00 | 0.00 | 91 | 1013.7 |
| 20260906100524 | 59 | 0 | 0.0 | 0.0 | 0.00 | 0.00 | 0.00 | 90 | 1013.6 |
| 20260906100040 | 59 | 0 | 0.0 | 0.0 | 0.00 | 0.00 | 0.00 | 90 | 1013.6 |
| 20260906095521 | 59 | 0 | 0.0 | 0.0 | 0.00 | 0.00 | 0.00 | 89 | 1013.4 |
| 20260906095024 | 59 | 0 | 0.0 | 3.0 | 0.00 | 0.00 | 0.00 | 89 | 1013.3 |
| 20260906094554 | 59 | 0 | 0.0 | 3.0 | 0.00 | 0.00 | 0.00 | 89 | 1013.3 |
| 20260906094024 | 59 | 25 | 0.0 | 4.0 | 0.00 | 0.00 | 0.00 | 88 | 1013.4 |
| 20260906093525 | 60 | 36 | 1.0 | 7.0 | 0.00 | 0.00 | 0.00 | 88 | 1013.3 |
| 20260906093049 | 60 | 20 | 2.0 | 7.0 | 0.00 | 0.00 | 0.00 | 88 | 1013.2 |
| 20260906092523 | 60 | 11 | 1.0 | 6.0 | 0.00 | 0.00 | 0.00 | 87 | 1013.2 |
| 20260906092024 | 60 | 27 | 2.0 | 6.0 | 0.00 | 0.00 | 0.00 | 87 | 1013.0 |
| 20260906091558 | 60 | 39 | 2.0 | 5.0 | 0.00 | 0.00 | 0.00 | 88 | 1013.1 |
| 20260906091019 | 60 | 27 | 1.0 | 3.0 | 0.00 | 0.00 | 0.00 | 88 | 1013.1 |
| 20260906090521 | 60 | 0 | 1.0 | 5.0 | 0.00 | 0.00 | 0.00 | 89 | 1013.0 |
| 20260906090044 | 60 | 37 | 1.0 | 5.0 | 0.00 | 0.00 | 0.00 | 89 | 1012.8 |
| 20260906085527 | 60 | 32 | 0.0 | 3.0 | 0.00 | 0.00 | 0.00 | 89 | 1012.9 |
| 20260906085024 | 60 | 33 | 1.0 | 3.0 | 0.00 | 0.00 | 0.00 | 90 | 1012.8 |
| 20260906084547 | 60 | 32 | 1.0 | 3.0 | 0.00 | 0.00 | 0.00 | 91 | 1012.8 |
| 20260906084026 | 60 | 32 | 0.0 | 4.0 | 0.00 | 0.00 | 0.00 | 92 | 1012.8 |
| 20260906083524 | 60 | 0 | 0.0 | 4.0 | 0.00 | 0.00 | 0.00 | 93 | 1012.9 |
| 20260906083044 | 60 | 30 | 0.0 | 2.0 | 0.00 | 0.00 | 0.00 | 93 | 1012.6 |
| 20260906082523 | 60 | 39 | 0.0 | 2.0 | 0.00 | 0.00 | 0.00 | 94 | 1012.7 |
| 20260906082019 | 60 | 0 | 0.0 | 1.0 | 0.00 | 0.00 | 0.00 | 94 | 1012.5 |
| 20260906081545 | 60 | 0 | 0.0 | 0.0 | 0.00 | 0.00 | 0.00 | 94 | 1012.7 |
| 20260906081020 | 60 | 0 | 0.0 | 2.0 | 0.00 | 0.00 | 0.00 | 94 | 1012.5 |
| 20260906080522 | 60 | 0 | 0.0 | 2.0 | 0.00 | 0.00 | 0.00 | 95 | 1012.5 |
| 20260906080045 | 60 | 0 | 0.0 | 0.0 | 0.00 | 0.00 | 0.00 | 94 | 1012.5 |
| 20260906075525 | 60 | 0 | 0.0 | 0.0 | 0.00 | 0.00 | 0.00 | 94 | 1012.5 |
| 20260906075024 | 60 | 0 | 0.0 | 0.0 | 0.00 | 0.00 | 0.00 | 94 | 1012.5 |
| 20260906074550 | 60 | 0 | 0.0 | 0.0 | 0.00 | 0.00 | 0.00 | 94 | 1012.4 |
| 20260906074023 | 60 | 0 | 0.0 | 0.0 | 0.00 | 0.00 | 0.00 | 94 | 1012.3 |
| 20260906073524 | 60 | 0 | 0.0 | 0.0 | 0.00 | 0.00 | 0.00 | 94 | 1012.4 |
| 20260906073046 | 59 | 0 | 0.0 | 0.0 | 0.00 | 0.00 | 0.00 | 94 | 1012.5 |
| 20260906072525 | 59 | 0 | 0.0 | 0.0 | 0.00 | 0.00 | 0.00 | 94 | 1012.5 |
| 20260906072024 | 59 | 0 | 0.0 | 0.0 | 0.00 | 0.00 | 0.00 | 94 | 1012.5 |
| 20260906071544 | 59 | 0 | 0.0 | 0.0 | 0.00 | 0.00 | 0.00 | 94 | 1012.6 |
| 20260906071021 | 59 | 0 | 0.0 | 0.0 | 0.00 | 0.00 | 0.00 | 94 | 1012.5 |
| 20260906070519 | 59 | 0 | 0.0 | 0.0 | 0.00 | 0.00 | 0.00 | 94 | 1012.5 |
| 20260906070040 | 59 | 0 | 0.0 | 0.0 | 0.00 | 0.00 | 0.00 | 94 | 1012.6 |
| 20260906065525 | 59 | 0 | 0.0 | 0.0 | 0.00 | 0.00 | 0.00 | 94 | 1012.6 |
| 20260906065024 | 59 | 0 | 0.0 | 0.0 | 0.00 | 0.00 | 0.00 | 94 | 1012.4 |
| 20260906064545 | 58 | 0 | 0.0 | 0.0 | 0.00 | 0.00 | 0.00 | 94 | 1012.3 |
| 20260906064024 | 58 | 0 | 0.0 | 0.0 | 0.00 | 0.00 | 0.00 | 94 | 1012.4 |
| 20260906063523 | 58 | 0 | 0.0 | 0.0 | 0.00 | 0.00 | 0.00 | 93 | 1012.4 |
| 20260906063041 | 58 | 0 | 0.0 | 0.0 | 0.00 | 0.00 | 0.00 | 93 | 1012.5 |
| 20260906062523 | 58 | 0 | 0.0 | 0.0 | 0.00 | 0.00 | 0.00 | 93 | 1012.5 |
| 20260906062024 | 58 | 0 | 0.0 | 0.0 | 0.00 | 0.00 | 0.00 | 93 | 1012.6 |
| 20260906061545 | 58 | 0 | 0.0 | 0.0 | 0.00 | 0.00 | 0.00 | 93 | 1012.5 |
| 20260906061025 | 59 | 0 | 0.0 | 0.0 | 0.00 | 0.00 | 0.00 | 93 | 1012.5 |
| 20260906060526 | 59 | 0 | 0.0 | 0.0 | 0.00 | 0.00 | 0.00 | 93 | 1012.5 |
| 20260906060044 | 59 | 0 | 0.0 | 0.0 | 0.00 | 0.00 | 0.00 | 93 | 1012.5 |
| 20260906055524 | 59 | 0 | 0.0 | 0.0 | 0.00 | 0.00 | 0.00 | 93 | 1012.5 |
| 20260906055024 | 59 | 0 | 0.0 | 0.0 | 0.00 | 0.00 | 0.00 | 93 | 1012.5 |
| 20260906054545 | 59 | 0 | 0.0 | 0.0 | 0.00 | 0.00 | 0.00 | 93 | 1012.6 |
| 20260906054018 | 59 | 0 | 0.0 | 0.0 | 0.00 | 0.00 | 0.00 | 92 | 1012.7 |
| 20260906053523 | 59 | 0 | 0.0 | 0.0 | 0.00 | 0.00 | 0.00 | 92 | 1012.7 |
| 20260906053101 | 59 | 0 | 0.0 | 0.0 | 0.00 | 0.00 | 0.00 | 92 | 1012.7 |
| 20260906052524 | 59 | 0 | 0.0 | 0.0 | 0.00 | 0.00 | 0.00 | 92 | 1012.7 |
| 20260906052024 | 59 | 0 | 0.0 | 0.0 | 0.00 | 0.00 | 0.00 | 92 | 1012.8 |
| 20260906051545 | 59 | 0 | 0.0 | 0.0 | 0.00 | 0.00 | 0.00 | 92 | 1012.8 |
| 20260906051024 | 59 | 0 | 0.0 | 0.0 | 0.00 | 0.00 | 0.00 | 92 | 1012.9 |
| 20260906050523 | 59 | 0 | 0.0 | 0.0 | 0.00 | 0.00 | 0.00 | 92 | 1012.9 |
| 20260906050051 | 59 | 0 | 0.0 | 0.0 | 0.00 | 0.00 | 0.00 | 92 | 1012.9 |
| 20260906045518 | 59 | 0 | 0.0 | 0.0 | 0.00 | 0.00 | 0.00 | 92 | 1012.9 |
| 20260906045022 | 59 | 0 | 0.0 | 0.0 | 0.00 | 0.00 | 0.00 | 92 | 1012.8 |
| 20260906044542 | 60 | 0 | 0.0 | 0.0 | 0.00 | 0.00 | 0.00 | 92 | 1012.8 |
| 20260906044030 | 60 | 0 | 0.0 | 0.0 | 0.00 | 0.00 | 0.00 | 91 | 1012.7 |
| 20260906043524 | 60 | 0 | 0.0 | 0.0 | 0.00 | 0.00 | 0.00 | 91 | 1012.8 |
| 20260906043051 | 60 | 0 | 0.0 | 0.0 | 0.00 | 0.00 | 0.00 | 91 | 1012.8 |
| 20260906042523 | 60 | 0 | 0.0 | 0.0 | 0.00 | 0.00 | 0.00 | 91 | 1012.7 |
| 20260906042024 | 60 | 0 | 0.0 | 0.0 | 0.00 | 0.00 | 0.00 | 91 | 1012.7 |
| 20260906041544 | 60 | 0 | 0.0 | 0.0 | 0.00 | 0.00 | 0.00 | 91 | 1012.7 |
| 20260906041024 | 60 | 0 | 0.0 | 0.0 | 0.00 | 0.00 | 0.00 | 90 | 1012.7 |
| 20260906040523 | 60 | 0 | 0.0 | 0.0 | 0.00 | 0.00 | 0.00 | 90 | 1012.6 |
| 20260906040043 | 60 | 0 | 0.0 | 0.0 | 0.00 | 0.00 | 0.00 | 90 | 1012.6 |
| 20260906035518 | 60 | 0 | 0.0 | 0.0 | 0.00 | 0.00 | 0.00 | 90 | 1012.5 |
| 20260906035022 | 60 | 0 | 0.0 | 0.0 | 0.00 | 0.00 | 0.00 | 90 | 1012.4 |
| 20260906034542 | 61 | 0 | 0.0 | 0.0 | 0.00 | 0.00 | 0.00 | 89 | 1012.4 |
| 20260906034024 | 61 | 0 | 0.0 | 0.0 | 0.00 | 0.00 | 0.00 | 89 | 1012.3 |
| 20260906033524 | 61 | 0 | 0.0 | 0.0 | 0.00 | 0.00 | 0.00 | 89 | 1012.3 |
| 20260906033058 | 61 | 0 | 0.0 | 0.0 | 0.00 | 0.00 | 0.00 | 89 | 1012.3 |
| 20260906032524 | 61 | 0 | 0.0 | 0.0 | 0.00 | 0.00 | 0.00 | 89 | 1012.2 |
| 20260906032024 | 61 | 0 | 0.0 | 0.0 | 0.00 | 0.00 | 0.00 | 89 | 1012.2 |
| 20260906031540 | 61 | 0 | 0.0 | 0.0 | 0.00 | 0.00 | 0.00 | 89 | 1012.2 |
| 20260906031021 | 61 | 0 | 0.0 | 0.0 | 0.00 | 0.00 | 0.00 | 89 | 1012.2 |
| 20260906030521 | 61 | 0 | 0.0 | 0.0 | 0.00 | 0.00 | 0.00 | 89 | 1012.2 |
| 20260906030045 | 61 | 0 | 0.0 | 0.0 | 0.00 | 0.00 | 0.00 | 89 | 1012.3 |
| 20260906025524 | 61 | 0 | 0.0 | 0.0 | 0.00 | 0.00 | 0.00 | 88 | 1012.4 |
| 20260906025024 | 61 | 0 | 0.0 | 0.0 | 0.00 | 0.00 | 0.00 | 89 | 1012.4 |
| 20260906024548 | 61 | 0 | 0.0 | 0.0 | 0.00 | 0.00 | 0.00 | 88 | 1012.5 |
| 20260906024024 | 62 | 0 | 0.0 | 0.0 | 0.00 | 0.00 | 0.00 | 88 | 1012.5 |
| 20260906023525 | 62 | 0 | 0.0 | 0.0 | 0.00 | 0.00 | 0.00 | 88 | 1012.6 |
| 20260906023050 | 62 | 0 | 0.0 | 0.0 | 0.00 | 0.00 | 0.00 | 88 | 1012.5 |
| 20260906022519 | 62 | 0 | 0.0 | 0.0 | 0.00 | 0.00 | 0.00 | 88 | 1012.5 |
| 20260906022026 | 62 | 0 | 0.0 | 0.0 | 0.00 | 0.00 | 0.00 | 88 | 1012.4 |
| 20260906021547 | 62 | 0 | 0.0 | 0.0 | 0.00 | 0.00 | 0.00 | 88 | 1012.5 |
| 20260906021024 | 62 | 0 | 0.0 | 0.0 | 0.00 | 0.00 | 0.00 | 88 | 1012.5 |
| 20260906020524 | 62 | 0 | 0.0 | 0.0 | 0.00 | 0.00 | 0.00 | 88 | 1012.5 |
| 20260906020057 | 62 | 0 | 0.0 | 0.0 | 0.00 | 0.00 | 0.00 | 88 | 1012.4 |
| 20260906015523 | 62 | 0 | 0.0 | 0.0 | 0.00 | 0.00 | 0.00 | 88 | 1012.6 |
| 20260906015024 | 62 | 0 | 0.0 | 0.0 | 0.00 | 0.00 | 0.00 | 88 | 1012.5 |
| 20260906014544 | 62 | 0 | 0.0 | 0.0 | 0.00 | 0.00 | 0.00 | 88 | 1012.7 |
| 20260906014025 | 62 | 0 | 0.0 | 0.0 | 0.00 | 0.00 | 0.00 | 88 | 1012.7 |
| 20260906013521 | 62 | 0 | 0.0 | 0.0 | 0.00 | 0.00 | 0.00 | 88 | 1012.7 |
| 20260906013050 | 62 | 0 | 0.0 | 0.0 | 0.00 | 0.00 | 0.00 | 88 | 1012.7 |
| 20260906012523 | 62 | 0 | 0.0 | 0.0 | 0.00 | 0.00 | 0.00 | 88 | 1012.8 |
| 20260906012029 | 62 | 0 | 0.0 | 0.0 | 0.00 | 0.00 | 0.00 | 88 | 1012.7 |
| 20260906011559 | 62 | 0 | 0.0 | 0.0 | 0.00 | 0.00 | 0.00 | 88 | 1012.5 |
| 20260906011023 | 62 | 0 | 0.0 | 0.0 | 0.00 | 0.00 | 0.00 | 88 | 1012.4 |
| 20260906010525 | 62 | 0 | 0.0 | 0.0 | 0.00 | 0.00 | 0.00 | 88 | 1012.4 |
| 20260906010047 | 62 | 0 | 0.0 | 0.0 | 0.00 | 0.00 | 0.00 | 88 | 1012.3 |
| 20260906005525 | 62 | 0 | 0.0 | 0.0 | 0.00 | 0.00 | 0.00 | 88 | 1012.4 |
| 20260906005029 | 62 | 0 | 0.0 | 0.0 | 0.00 | 0.00 | 0.00 | 88 | 1012.4 |
| 20260906004543 | 62 | 0 | 0.0 | 0.0 | 0.00 | 0.00 | 0.00 | 88 | 1012.3 |
| 20260906004029 | 62 | 0 | 0.0 | 0.0 | 0.00 | 0.00 | 0.00 | 88 | 1012.3 |
| 20260906003525 | 62 | 0 | 0.0 | 0.0 | 0.00 | 0.00 | 0.00 | 88 | 1012.3 |
| 20260906003047 | 62 | 0 | 0.0 | 0.0 | 0.00 | 0.00 | 0.00 | 87 | 1012.3 |
| 20260906002524 | 63 | 0 | 0.0 | 0.0 | 0.00 | 0.00 | 0.00 | 87 | 1012.1 |
| 20260906002025 | 63 | 0 | 0.0 | 0.0 | 0.00 | 0.00 | 0.00 | 87 | 1012.1 |
| 20260906001548 | 63 | 0 | 0.0 | 0.0 | 0.00 | 0.00 | 0.00 | 87 | 1012.0 |
| 20260906001025 | 63 | 0 | 0.0 | 0.0 | 0.00 | 0.00 | 0.00 | 86 | 1011.9 |
| 20260906000525 | 63 | 0 | 0.0 | 0.0 | 0.00 | 0.00 | 0.00 | 86 | 1011.9 |
| 20260906000054 | 63 | 0 | 0.0 | 0.0 | 0.00 | 0.00 | 0.00 | 86 | 1011.8 |
| 20260905235523 | 63 | 0 | 0.0 | 0.0 | 0.00 | 0.00 | 0.00 | 86 | 1011.9 |
| 20260905235021 | 63 | 0 | 0.0 | 0.0 | 0.00 | 0.00 | 0.00 | 85 | 1011.8 |
| 20260905234545 | 63 | 0 | 0.0 | 0.0 | 0.00 | 0.00 | 0.00 | 85 | 1011.9 |
| 20260905234019 | 63 | 0 | 0.0 | 0.0 | 0.00 | 0.00 | 0.00 | 84 | 1011.8 |
| 20260905233524 | 64 | 0 | 0.0 | 0.0 | 0.00 | 0.00 | 0.00 | 84 | 1011.8 |
| 20260905233046 | 64 | 0 | 0.0 | 0.0 | 0.00 | 0.00 | 0.00 | 83 | 1011.6 |
| 20260905232524 | 64 | 0 | 0.0 | 0.0 | 0.00 | 0.00 | 0.00 | 83 | 1011.6 |
| 20260905232024 | 64 | 0 | 0.0 | 0.0 | 0.00 | 0.00 | 0.00 | 83 | 1011.6 |
| 20260905231545 | 64 | 0 | 0.0 | 0.0 | 0.00 | 0.00 | 0.00 | 82 | 1011.7 |
| 20260905231024 | 65 | 0 | 0.0 | 0.0 | 0.00 | 0.00 | 0.00 | 82 | 1011.7 |
| 20260905230524 | 65 | 0 | 0.0 | 0.0 | 0.00 | 0.00 | 0.00 | 82 | 1011.7 |
| 20260905230042 | 65 | 0 | 0.0 | 0.0 | 0.00 | 0.00 | 0.00 | 81 | 1011.6 |
| 20260905225525 | 65 | 0 | 0.0 | 0.0 | 0.00 | 0.00 | 0.00 | 81 | 1011.6 |
| 20260905225023 | 65 | 0 | 0.0 | 1.0 | 0.00 | 0.00 | 0.00 | 81 | 1011.7 |
| 20260905224550 | 65 | 0 | 0.0 | 1.0 | 0.00 | 0.00 | 0.00 | 81 | 1011.7 |
| 20260905224023 | 65 | 0 | 0.0 | 1.0 | 0.00 | 0.00 | 0.00 | 80 | 1011.8 |
| 20260905223525 | 65 | 0 | 0.0 | 3.0 | 0.00 | 0.00 | 0.00 | 79 | 1011.9 |
| 20260905223045 | 65 | 8 | 1.0 | 3.0 | 0.00 | 0.00 | 0.00 | 79 | 1011.8 |
| 20260905222524 | 65 | 0 | 0.0 | 2.0 | 0.00 | 0.00 | 0.00 | 80 | 1011.8 |
| 20260905222023 | 65 | 39 | 1.0 | 2.0 | 0.00 | 0.00 | 0.00 | 79 | 1011.8 |
| 20260905221543 | 65 | 30 | 0.0 | 3.0 | 0.00 | 0.00 | 0.00 | 79 | 1011.9 |
| 20260905221022 | 65 | 41 | 1.0 | 4.0 | 0.00 | 0.00 | 0.00 | 79 | 1011.9 |
| 20260905220523 | 65 | 20 | 1.0 | 4.0 | 0.00 | 0.00 | 0.00 | 79 | 1011.8 |
| 20260905220046 | 66 | 34 | 1.0 | 5.0 | 0.00 | 0.00 | 0.00 | 79 | 1011.7 |
| 20260905215524 | 66 | 18 | 2.0 | 5.0 | 0.00 | 0.00 | 0.00 | 78 | 1011.6 |
| 20260905215030 | 66 | 39 | 2.0 | 5.0 | 0.00 | 0.00 | 0.00 | 78 | 1011.5 |
| 20260905214544 | 66 | 359 | 2.0 | 5.0 | 0.00 | 0.00 | 0.00 | 79 | 1011.4 |
| 20260905214024 | 66 | 20 | 2.0 | 4.0 | 0.00 | 0.00 | 0.00 | 79 | 1011.4 |
| 20260905213525 | 66 | 28 | 2.0 | 6.0 | 0.00 | 0.00 | 0.00 | 79 | 1011.3 |
| 20260905213044 | 66 | 34 | 2.0 | 8.0 | 0.00 | 0.00 | 0.00 | 79 | 1011.3 |
| 20260905212522 | 66 | 27 | 2.0 | 8.0 | 0.00 | 0.00 | 0.00 | 78 | 1011.2 |
| 20260905212024 | 67 | 32 | 3.0 | 8.0 | 0.00 | 0.00 | 0.00 | 78 | 1011.2 |